SCP
0 0 0 0 0 0 0 0 0 0 0 0 0 0 0 0 0 0 0 0 0 0 0 0 0 0 1 1 1 1 1 1 1 1 1 1 1 1 0 0 0 0 0
1 0 0 0 0 0 0 0 0 0 0 0 0 0 0 0 0 0 0 0 0 0 0 0 0 0 0 1 1 1 1 1 1 1 1 1 1 0 0 0 0 0 0
0 0 0 0 0 0 0 0 0 0 0 1 0 0 0 0 0 0 0 0 0 0 0 0 0 1 1 1 1 1 1 1 1 1 0 0 0 0 0 0 0 0 0
0 1 1 1 1 1 1 1 1 1 1 1 1 1 1 0 0 0 0 0 0 0 0 0 0 1 1 1 1 1 1 1 1 1 1 0 1 1 1 0 0 0 0
1 1 1 1 1 1 1 1 1 1 1 1 1 1 1 1 1 1 0 0 0 0 0 0 1 1 1 1 2 1 2 2 1 1 1 1 1 1 1 0 -0 0 0
1 1 1 2 1 1 1 1 1 1 1 1 1 1 1 1 1 1 1 1 1 1 1 0 0 0 1 1 1 1 1 1 2 1 1 0 0 1 0 0 0 0 0
1 1 1 1 1 1 1 1 1 1 1 1 1 1 1 1 1 1 1 1 1 1 1 1 1 1 1 1 1 1 1 1 1 0 1 0 0 0 0 0 0 0 0
1 1 1 0 1 1 1 1 1 1 1 1 1 1 1 1 1 1 1 1 1 1 1 1 1 2 1 1 1 1 1 1 2 1 1 0 0 0 0 0 0 0 0
0 0 0 0 0 0 0 0 0 1 0 0 1 1 1 1 1 1 1 1 1 1 1 2 1 2 1 1 1 1 1 1 1 1 1 0 0 0 0 1 1 0 0
0 0 0 0 0 0 0 0 0 0 0 0 0 1 1 1 1 0 1 1 1 1 1 1 1 1 2 1 1 1 1 1 1 1 2 1 0 1 0 1 1 0 0
0 0 0 0 0 0 0 0 0 0 0 0 0 0 1 1 1 1 1 0 0 1 1 1 1 1 2 2 2 2 1 1 1 1 2 2 1 1 1 1 1 1 0
0 0 0 0 0 0 0 0 0 0 0 0 0 0 1 1 0 1 1 1 0 0 1 1 1 1 1 3 2 1 1 1 0 0 1 2 2 1 1 1 1 0 0
0 0 0 0 0 0 0 0 0 0 0 0 0 0 0 0 1 1 1 1 0 0 0 1 1 1 1 2 1 1 0 0 0 0 0 1 1 1 0 1 0 1 1
0 0 0 0 0 0 0 0 0 0 0 0 0 0 0 0 0 0 1 1 0 0 0 0 0 1 1 1 1 0 0 0 0 0 0 0 0 0 0 0 0 0 0
0 0 0 0 0 0 0 0 0 0 0 0 0 0 0 0 0 0 1 1 1 0 0 0 0 0 1 0 0 0 0 0 0 0 0 0 0 0 0 0 0 0 0
0 0 0 0 0 0 0 0 0 0 0 0 0 0 0 0 0 0 0 0 1 1 0 0 0 0 1 0 0 0 0 0 0 0 0 0 0 0 0 0 0 0 0
0 0 0 0 0 0 0 0 0 0 0 0 0 0 0 0 0 0 0 0 0 0 0 0 0 1 1 0 0 0 0 0 0 0 0 0 0 0 0 0 0 0 0
0 0 0 0 0 0 0 0 0 0 0 0 0 0 0 0 0 0 0 0 0 0 0 0 0 0 0 0 0 0 0 0 0 0 0 0 0 0 0 0 0 0 0
0 0 0 0 0 0 0 0 0 0 0 0 0 0 0 0 0 0 0 0 0 0 0 1 0 0 0 0 0 0 -0 0 0 0 0 0 0 0 0 0 0 0 0
0 0 0 0 0 0 0 0 0 0 0 0 1 0 0 0 0 0 0 0 0 0 1 1 0 0 0 0 0 0 0 0 0 0 0 0 0 0 0 0 0 0 0
0 0 0 0 0 0 0 0 0 0 0 0 0 0 1 0 0 0 0 0 0 0 0 0 1 0 0 0 0 0 0 0 0 0 2 0 0 0 0 0 0 0 0
0 0 0 0 0 0 0 0 0 0 0 0 0 0 0 0 0 0 0 0 0 0 0 0 1 0 0 0 0 0 0 0 0 0 1 1 0 0 0 0 0 0 0
0 0 0 0 0 0 0 0 0 0 0 0 0 0 0 0 0 0 0 0 0 0 0 0 0 0 0 0 0 0 0 0 0 0 0 0 0 0 0 0 0 0 0
0 0 0 0 0 0 0 0 0 0 0 0 0 0 0 0 0 0 0 0 0 0 0 0 0 0 0 0 0 0 0 0 0 0 0 0 0 0 0 0 0 0 0
0 0 0 0 0 0 0 0 0 0 0 0 0 0 0 0 0 0 0 0 0 0 0 0 0 0 0 0 0 0 0 0 0 0 0 0 0 0 0 0 0 0 0
0 0 0 0 0 0 0 0 0 0 0 0 0 0 0 -0 0 0 0 0 0 0 0 0 0 0 0 0 0 0 0 0 0 0 0 0 0 0 0 0 0 0 0
Wind_Speed_500mb
39 39 40 40 40 40 40 41 43 44 45 46 49 50 49 49 48 50 51 44 47 46 43 46 45 46 43 44 42 33 39 27 30 31 34 31 32 27 24 23 21 19 20
37 38 38 39 41 42 45 46 47 49 52 54 56 58 56 54 56 54 54 51 51 50 54 53 51 51 51 53 43 44 39 37 37 35 42 36 38 33 29 28 25 24 19
31 31 31 32 32 34 38 43 47 48 51 53 58 60 61 59 60 58 57 62 61 55 58 58 60 56 55 51 48 47 45 49 44 40 41 46 44 40 36 35 32 28 26
27 26 29 33 34 38 36 39 42 48 51 51 53 55 55 55 58 61 64 62 65 67 65 61 59 61 61 62 55 56 54 54 51 48 47 46 50 43 44 42 37 31 31
28 29 32 33 33 37 41 42 45 47 49 55 58 58 60 61 57 57 62 65 65 69 69 67 63 62 61 67 64 64 58 58 53 56 52 49 49 47 50 44 40 37 35
33 35 36 35 36 38 44 45 50 50 51 50 49 51 62 65 64 64 64 62 67 70 70 68 66 69 65 63 61 67 63 62 55 53 53 49 46 49 50 46 41 37 37
34 31 30 31 36 42 45 46 47 50 53 50 53 58 50 53 65 63 62 60 60 62 66 71 67 67 68 72 65 64 64 64 58 54 52 50 47 48 48 49 44 45 44
29 29 34 39 44 49 51 50 49 49 47 40 40 40 37 43 41 49 49 49 48 50 50 52 62 68 65 65 64 63 62 61 59 59 58 55 50 48 50 50 50 52 49
28 28 32 37 42 46 46 41 39 43 50 40 41 38 24 31 36 36 37 42 51 55 58 55 54 52 52 52 58 68 67 59 62 64 62 52 51 48 52 53 55 55 52
22 23 23 23 26 31 33 36 38 41 44 48 43 47 53 52 41 41 41 37 47 52 50 50 55 52 49 51 48 51 53 61 69 66 61 59 52 51 50 56 57 56 54
25 26 26 25 24 28 32 34 38 42 40 38 41 46 54 56 59 59 56 60 50 51 58 60 61 64 62 76 78 69 59 58 56 71 67 65 61 56 54 51 53 59 60
32 34 34 34 35 37 36 37 37 36 36 37 37 43 50 47 47 53 58 58 66 58 53 65 69 73 76 75 76 77 77 83 78 60 68 66 64 59 53 53 56 60 55
44 43 44 45 46 45 45 43 41 36 32 39 42 41 43 51 56 59 68 64 64 66 59 58 75 71 72 79 93 98 103 97 91 79 60 61 68 58 54 55 57 58 51
56 55 54 54 55 56 53 51 51 47 42 38 39 47 45 45 47 54 65 64 65 64 64 67 63 74 71 85 94 92 88 87 90 90 84 74 69 61 59 56 57 58 49
70 68 67 67 65 64 61 60 59 59 54 49 48 42 44 48 49 51 57 64 66 65 71 71 70 72 78 77 68 77 74 88 75 81 67 64 70 65 58 56 57 58 48
68 69 71 75 74 72 67 64 66 67 66 63 59 57 54 53 51 52 52 50 58 74 80 73 78 71 65 79 84 87 89 69 66 52 52 51 60 59 56 56 56 55 53
63 65 69 73 77 81 81 79 77 73 71 72 68 68 66 65 61 55 50 50 57 62 79 85 82 77 78 91 94 91 68 71 54 48 58 47 62 58 55 60 55 57 53
76 76 79 81 83 85 87 90 90 88 83 80 77 75 77 71 72 64 60 61 63 73 75 81 94 90 85 74 68 64 72 63 51 49 51 69 63 59 58 57 54 56 53
88 88 89 91 92 89 89 89 89 86 92 94 91 84 83 77 77 74 73 66 65 70 78 81 93 95 83 72 60 59 57 69 68 70 65 59 64 55 54 57 55 52 49
82 80 80 81 79 75 72 71 73 81 86 91 101 97 91 79 79 81 80 78 74 80 83 87 86 93 81 81 79 63 59 51 68 58 54 55 59 54 53 52 51 48 41
67 67 66 63 60 60 61 64 67 74 84 88 88 88 95 94 90 90 83 82 85 82 86 85 88 85 81 71 69 52 58 52 46 47 59 63 60 58 51 48 49 45 40
55 53 56 54 56 56 56 58 62 66 75 82 83 76 77 93 93 93 91 95 98 109 101 95 88 91 83 75 76 66 60 47 43 54 61 59 56 51 46 47 46 45 40
53 53 52 53 58 59 62 66 66 71 70 76 82 73 69 75 83 85 90 107 119 116 110 103 89 87 81 69 61 58 50 48 45 44 51 48 47 41 42 45 44 45 41
53 52 54 57 63 63 59 61 53 53 60 58 62 63 64 73 83 88 97 107 93 72 71 84 95 78 82 68 65 58 59 56 54 40 46 35 44 27 40 47 45 45 43
62 61 57 57 57 56 56 59 52 51 54 47 52 54 55 69 97 108 108 84 78 63 62 67 85 85 63 61 59 61 50 43 42 38 39 23 27 26 32 28 44 43 40
64 61 58 57 51 57 50 49 46 47 48 41 46 41 48 71 84 42 29 53 38 20 28 34 32 41 45 54 46 40 37 36 31 25 46 39 25 26 19 41 40 36 35
Wind_Direction_500mb
246 249 252 255 259 263 266 270 274 277 278 278 278 279 280 281 278 280 280 274 272 268 264 265 265 267 270 268 271 272 270 271 267 266 271 274 275 273 276 273 271 270 276
253 257 260 263 265 267 270 272 274 277 278 280 280 280 278 279 278 277 276 273 272 272 268 265 263 262 269 269 264 271 273 278 271 272 277 275 268 268 268 269 268 266 269
250 254 257 262 269 275 274 275 276 276 278 280 279 279 279 277 274 274 273 274 270 264 263 263 265 263 266 268 262 267 276 277 277 276 275 273 273 269 265 264 263 270 265
247 254 266 274 279 280 273 272 274 274 273 273 275 278 280 278 274 272 268 268 270 271 269 265 259 263 260 261 260 264 268 272 282 286 276 276 270 272 263 263 267 266 264
250 258 261 264 265 270 276 278 280 282 281 279 278 278 277 278 277 275 271 268 265 266 270 266 263 265 261 258 259 261 266 270 276 278 283 277 274 270 264 264 266 266 260
250 254 262 267 274 279 282 282 281 278 279 279 280 279 279 278 276 274 271 272 268 265 266 269 270 266 263 264 262 262 264 268 273 277 275 275 277 267 263 262 265 265 257
244 252 262 273 282 287 288 287 285 285 281 280 283 282 282 282 275 273 272 271 272 268 267 266 269 270 269 268 267 266 266 269 268 272 273 272 277 268 260 260 265 266 263
244 259 271 281 283 283 283 285 286 285 285 279 275 284 289 287 280 282 278 273 269 266 265 265 267 267 269 271 274 271 273 272 267 266 270 273 269 269 256 261 272 271 272
252 265 272 273 276 278 282 288 294 292 288 277 270 261 273 268 284 278 274 267 272 273 272 271 266 264 265 267 270 269 270 268 268 270 267 268 269 267 257 261 274 269 271
255 266 273 276 280 277 280 291 293 291 286 277 271 265 257 261 270 280 276 275 270 267 266 264 267 263 257 263 266 269 269 267 261 263 263 270 269 263 257 262 271 270 274
267 272 273 274 275 275 279 290 292 294 280 277 273 271 265 267 265 262 271 279 276 276 272 266 262 259 260 258 258 259 258 268 276 258 255 263 268 262 258 260 270 276 279
264 267 265 266 267 271 278 286 295 298 288 280 276 270 267 263 269 266 261 263 274 272 269 272 268 269 267 258 258 258 265 264 264 268 254 251 258 258 253 261 268 277 281
263 267 271 267 266 270 274 281 286 293 290 283 282 276 272 271 270 269 270 270 268 275 277 272 268 264 265 267 260 262 265 273 265 256 263 258 250 250 246 256 267 274 276
257 258 261 269 272 267 272 277 279 282 281 280 280 276 277 277 275 272 272 270 270 271 273 273 271 268 268 265 265 262 265 273 263 261 261 261 255 242 245 251 264 271 262
262 263 261 259 258 260 265 272 273 275 275 273 276 277 277 277 279 279 277 274 266 267 268 274 272 273 266 268 262 273 262 281 275 256 261 258 256 237 240 246 258 263 253
268 267 262 259 256 255 258 261 267 271 270 271 273 271 273 278 280 277 274 273 272 269 268 268 270 270 267 260 265 271 270 265 275 251 251 249 238 234 235 247 254 251 255
274 270 267 262 259 257 258 258 258 258 261 267 267 269 271 275 273 275 274 274 275 270 266 269 268 261 266 270 271 273 263 268 269 262 244 241 241 235 240 249 251 247 257
271 272 271 268 264 262 259 257 257 257 258 259 262 263 268 271 271 273 273 269 272 273 269 264 271 263 266 267 269 268 269 272 263 265 266 252 247 241 242 238 236 246 253
280 275 272 268 266 265 264 262 260 258 257 258 259 260 263 265 267 269 274 270 273 273 272 266 267 267 261 259 260 264 269 269 264 265 261 246 238 232 228 229 235 242 254
285 282 277 273 270 268 265 263 261 260 259 259 259 259 261 261 263 269 271 275 274 277 273 266 264 264 258 252 260 265 265 265 261 259 236 233 230 227 223 225 233 242 251
292 288 284 279 276 272 270 269 266 263 263 261 261 261 259 261 264 268 270 273 273 275 269 264 260 258 253 247 249 250 262 254 249 235 225 231 232 227 226 230 232 237 240
294 291 288 284 282 279 275 271 271 271 264 260 259 258 257 261 264 268 274 277 275 279 265 259 254 248 250 246 250 254 249 238 233 231 225 228 226 224 225 227 230 233 239
295 293 286 285 282 279 279 287 281 277 270 265 259 260 261 262 270 273 278 285 285 280 271 254 244 243 242 241 244 240 235 229 225 214 210 213 213 217 221 224 225 228 231
296 294 290 282 281 282 277 284 283 281 271 272 259 259 267 270 279 280 280 280 280 271 254 236 237 248 249 249 232 233 230 223 212 204 203 205 208 196 210 223 226 234 244
303 301 297 293 289 286 283 274 276 277 278 279 261 261 275 281 279 282 277 269 266 254 253 236 234 240 241 235 236 230 217 197 190 192 200 192 203 197 218 227 240 244 243
310 308 306 302 290 289 286 281 276 274 278 275 253 266 282 292 285 262 235 215 192 167 223 195 206 210 208 214 208 201 208 211 204 223 232 223 208 198 218 232 234 236 231
Wind_Speed_850mb
39 39 40 40 40 40 40 41 43 44 45 46 49 50 49 49 48 50 51 44 47 46 43 46 45 46 43 44 42 33 39 27 30 31 34 31 32 27 24 23 21 19 20
37 38 38 39 41 42 45 46 47 49 52 54 56 58 56 54 56 54 54 51 51 50 54 53 51 51 51 53 43 44 39 37 37 35 42 36 38 33 29 28 25 24 19
31 31 31 32 32 34 38 43 47 48 51 53 58 60 61 59 60 58 57 62 61 55 58 58 60 56 55 51 48 47 45 49 44 40 41 46 44 40 36 35 32 28 26
27 26 29 33 34 38 36 39 42 48 51 51 53 55 55 55 58 61 64 62 65 67 65 61 59 61 61 62 55 56 54 54 51 48 47 46 50 43 44 42 37 31 31
28 29 32 33 33 37 41 42 45 47 49 55 58 58 60 61 57 57 62 65 65 69 69 67 63 62 61 67 64 64 58 58 53 56 52 49 49 47 50 44 40 37 35
33 35 36 35 36 38 44 45 50 50 51 50 49 51 62 65 64 64 64 62 67 70 70 68 66 69 65 63 61 67 63 62 55 53 53 49 46 49 50 46 41 37 37
34 31 30 31 36 42 45 46 47 50 53 50 53 58 50 53 65 63 62 60 60 62 66 71 67 67 68 72 65 64 64 64 58 54 52 50 47 48 48 49 44 45 44
29 29 34 39 44 49 51 50 49 49 47 40 40 40 37 43 41 49 49 49 48 50 50 52 62 68 65 65 64 63 62 61 59 59 58 55 50 48 50 50 50 52 49
28 28 32 37 42 46 46 41 39 43 50 40 41 38 24 31 36 36 37 42 51 55 58 55 54 52 52 52 58 68 67 59 62 64 62 52 51 48 52 53 55 55 52
22 23 23 23 26 31 33 36 38 41 44 48 43 47 53 52 41 41 41 37 47 52 50 50 55 52 49 51 48 51 53 61 69 66 61 59 52 51 50 56 57 56 54
25 26 26 25 24 28 32 34 38 42 40 38 41 46 54 56 59 59 56 60 50 51 58 60 61 64 62 76 78 69 59 58 56 71 67 65 61 56 54 51 53 59 60
32 34 34 34 35 37 36 37 37 36 36 37 37 43 50 47 47 53 58 58 66 58 53 65 69 73 76 75 76 77 77 83 78 60 68 66 64 59 53 53 56 60 55
44 43 44 45 46 45 45 43 41 36 32 39 42 41 43 51 56 59 68 64 64 66 59 58 75 71 72 79 93 98 103 97 91 79 60 61 68 58 54 55 57 58 51
56 55 54 54 55 56 53 51 51 47 42 38 39 47 45 45 47 54 65 64 65 64 64 67 63 74 71 85 94 92 88 87 90 90 84 74 69 61 59 56 57 58 49
70 68 67 67 65 64 61 60 59 59 54 49 48 42 44 48 49 51 57 64 66 65 71 71 70 72 78 77 68 77 74 88 75 81 67 64 70 65 58 56 57 58 48
68 69 71 75 74 72 67 64 66 67 66 63 59 57 54 53 51 52 52 50 58 74 80 73 78 71 65 79 84 87 89 69 66 52 52 51 60 59 56 56 56 55 53
63 65 69 73 77 81 81 79 77 73 71 72 68 68 66 65 61 55 50 50 57 62 79 85 82 77 78 91 94 91 68 71 54 48 58 47 62 58 55 60 55 57 53
76 76 79 81 83 85 87 90 90 88 83 80 77 75 77 71 72 64 60 61 63 73 75 81 94 90 85 74 68 64 72 63 51 49 51 69 63 59 58 57 54 56 53
88 88 89 91 92 89 89 89 89 86 92 94 91 84 83 77 77 74 73 66 65 70 78 81 93 95 83 72 60 59 57 69 68 70 65 59 64 55 54 57 55 52 49
82 80 80 81 79 75 72 71 73 81 86 91 101 97 91 79 79 81 80 78 74 80 83 87 86 93 81 81 79 63 59 51 68 58 54 55 59 54 53 52 51 48 41
67 67 66 63 60 60 61 64 67 74 84 88 88 88 95 94 90 90 83 82 85 82 86 85 88 85 81 71 69 52 58 52 46 47 59 63 60 58 51 48 49 45 40
55 53 56 54 56 56 56 58 62 66 75 82 83 76 77 93 93 93 91 95 98 109 101 95 88 91 83 75 76 66 60 47 43 54 61 59 56 51 46 47 46 45 40
53 53 52 53 58 59 62 66 66 71 70 76 82 73 69 75 83 85 90 107 119 116 110 103 89 87 81 69 61 58 50 48 45 44 51 48 47 41 42 45 44 45 41
53 52 54 57 63 63 59 61 53 53 60 58 62 63 64 73 83 88 97 107 93 72 71 84 95 78 82 68 65 58 59 56 54 40 46 35 44 27 40 47 45 45 43
62 61 57 57 57 56 56 59 52 51 54 47 52 54 55 69 97 108 108 84 78 63 62 67 85 85 63 61 59 61 50 43 42 38 39 23 27 26 32 28 44 43 40
64 61 58 57 51 57 50 49 46 47 48 41 46 41 48 71 84 42 29 53 38 20 28 34 32 41 45 54 46 40 37 36 31 25 46 39 25 26 19 41 40 36 35
Wind_Direction_850mb
246 249 252 255 259 263 266 270 274 277 278 278 278 279 280 281 278 280 280 274 272 268 264 265 265 267 270 268 271 272 270 271 267 266 271 274 275 273 276 273 271 270 276
253 257 260 263 265 267 270 272 274 277 278 280 280 280 278 279 278 277 276 273 272 272 268 265 263 262 269 269 264 271 273 278 271 272 277 275 268 268 268 269 268 266 269
250 254 257 262 269 275 274 275 276 276 278 280 279 279 279 277 274 274 273 274 270 264 263 263 265 263 266 268 262 267 276 277 277 276 275 273 273 269 265 264 263 270 265
247 254 266 274 279 280 273 272 274 274 273 273 275 278 280 278 274 272 268 268 270 271 269 265 259 263 260 261 260 264 268 272 282 286 276 276 270 272 263 263 267 266 264
250 258 261 264 265 270 276 278 280 282 281 279 278 278 277 278 277 275 271 268 265 266 270 266 263 265 261 258 259 261 266 270 276 278 283 277 274 270 264 264 266 266 260
250 254 262 267 274 279 282 282 281 278 279 279 280 279 279 278 276 274 271 272 268 265 266 269 270 266 263 264 262 262 264 268 273 277 275 275 277 267 263 262 265 265 257
244 252 262 273 282 287 288 287 285 285 281 280 283 282 282 282 275 273 272 271 272 268 267 266 269 270 269 268 267 266 266 269 268 272 273 272 277 268 260 260 265 266 263
244 259 271 281 283 283 283 285 286 285 285 279 275 284 289 287 280 282 278 273 269 266 265 265 267 267 269 271 274 271 273 272 267 266 270 273 269 269 256 261 272 271 272
252 265 272 273 276 278 282 288 294 292 288 277 270 261 273 268 284 278 274 267 272 273 272 271 266 264 265 267 270 269 270 268 268 270 267 268 269 267 257 261 274 269 271
255 266 273 276 280 277 280 291 293 291 286 277 271 265 257 261 270 280 276 275 270 267 266 264 267 263 257 263 266 269 269 267 261 263 263 270 269 263 257 262 271 270 274
267 272 273 274 275 275 279 290 292 294 280 277 273 271 265 267 265 262 271 279 276 276 272 266 262 259 260 258 258 259 258 268 276 258 255 263 268 262 258 260 270 276 279
264 267 265 266 267 271 278 286 295 298 288 280 276 270 267 263 269 266 261 263 274 272 269 272 268 269 267 258 258 258 265 264 264 268 254 251 258 258 253 261 268 277 281
263 267 271 267 266 270 274 281 286 293 290 283 282 276 272 271 270 269 270 270 268 275 277 272 268 264 265 267 260 262 265 273 265 256 263 258 250 250 246 256 267 274 276
257 258 261 269 272 267 272 277 279 282 281 280 280 276 277 277 275 272 272 270 270 271 273 273 271 268 268 265 265 262 265 273 263 261 261 261 255 242 245 251 264 271 262
262 263 261 259 258 260 265 272 273 275 275 273 276 277 277 277 279 279 277 274 266 267 268 274 272 273 266 268 262 273 262 281 275 256 261 258 256 237 240 246 258 263 253
268 267 262 259 256 255 258 261 267 271 270 271 273 271 273 278 280 277 274 273 272 269 268 268 270 270 267 260 265 271 270 265 275 251 251 249 238 234 235 247 254 251 255
274 270 267 262 259 257 258 258 258 258 261 267 267 269 271 275 273 275 274 274 275 270 266 269 268 261 266 270 271 273 263 268 269 262 244 241 241 235 240 249 251 247 257
271 272 271 268 264 262 259 257 257 257 258 259 262 263 268 271 271 273 273 269 272 273 269 264 271 263 266 267 269 268 269 272 263 265 266 252 247 241 242 238 236 246 253
280 275 272 268 266 265 264 262 260 258 257 258 259 260 263 265 267 269 274 270 273 273 272 266 267 267 261 259 260 264 269 269 264 265 261 246 238 232 228 229 235 242 254
285 282 277 273 270 268 265 263 261 260 259 259 259 259 261 261 263 269 271 275 274 277 273 266 264 264 258 252 260 265 265 265 261 259 236 233 230 227 223 225 233 242 251
292 288 284 279 276 272 270 269 266 263 263 261 261 261 259 261 264 268 270 273 273 275 269 264 260 258 253 247 249 250 262 254 249 235 225 231 232 227 226 230 232 237 240
294 291 288 284 282 279 275 271 271 271 264 260 259 258 257 261 264 268 274 277 275 279 265 259 254 248 250 246 250 254 249 238 233 231 225 228 226 224 225 227 230 233 239
295 293 286 285 282 279 279 287 281 277 270 265 259 260 261 262 270 273 278 285 285 280 271 254 244 243 242 241 244 240 235 229 225 214 210 213 213 217 221 224 225 228 231
296 294 290 282 281 282 277 284 283 281 271 272 259 259 267 270 279 280 280 280 280 271 254 236 237 248 249 249 232 233 230 223 212 204 203 205 208 196 210 223 226 234 244
303 301 297 293 289 286 283 274 276 277 278 279 261 261 275 281 279 282 277 269 266 254 253 236 234 240 241 235 236 230 217 197 190 192 200 192 203 197 218 227 240 244 243
310 308 306 302 290 289 286 281 276 274 278 275 253 266 282 292 285 262 235 215 192 167 223 195 206 210 208 214 208 201 208 211 204 223 232 223 208 198 218 232 234 236 231